Torna al catalogo

THOR ABLESTAR DEB

AttivoLEO
NORAD 402·DEBRIS·🇺🇸 United States

Lanciato Jun 29, 1961 da Cape Canaveral Space Force Station

Loading…

Prossimi Passaggi (prossime 24 ore)

TLE

AggiornatoSource: Space-Track

Epoca: Sep 13, 2026, 12:50 UTC

1 00402U 61015EB  26256.53537104  .00006937  00000-0  10445-2 0  9999
2 00402  66.6520 342.8723 0032006 247.1856 112.5883 14.74649956354247

Traccia THOR ABLESTAR DEB in tempo reale con AllMySat

Download on the App Store